Regional Weather Roundup
Issued by NWS

Home | Current Version | Previous Version | Text Only | Print | Product List | Glossary On
Versions: 1 2 3 4 5 6 7 8 9 10 11 12 13 14 15 16 17 18 19 20 21 22 23 24 25 26 27 28 29 30 31 32 33 34 35 36 37 38 39 40 41 42 43 44 45 46 47 48 49 50
000
ASUS46 KSEW 230510
RWRWA

WASHINGTON REGIONAL WEATHER ROUNDUP
NATIONAL WEATHER SERVICE SEATTLE WA
900 PM PST SAT NOV 22 2014

NOTE:"FAIR" INDICATES FEW OR NO CLOUDS BELOW 12,000 FEET WITH NO
SIGNIFICANT WEATHER AND/OR OBSTRUCTIONS TO VISIBILITY.

WAZ505-507>509-230600-
SEATTLE, TACOMA, EVERETT, AND VICINITY

CITY           SKY/WX    TMP DP  RH WIND       PRES   REMARKS
EVERETT        CLOUDY    45  42  89 S8        30.06R
BOEING FIELD   PTCLDY    45  40  82 SE6       30.08R
RENTON         PTCLDY    45  42  89 E3        30.08R
SEATAC AIRPORT MOCLDY    46  41  82 S7        30.08R
JBLM-MCCHORD   PTCLDY    46  44  94 S12       30.10R
PUYALLUP       NOT AVBL
JBLM-FT LEWIS  DRIZZLE   44  44  99 S10       30.10R
TACOMA NARROWS PTCLDY    47  40  76 SW12      30.08R
$$

WAZ001-503-506-510-514-515-230600-
NORTH INTERIOR

CITY           SKY/WX    TMP DP  RH WIND       PRES   REMARKS
BELLINGHAM     CLOUDY    47  41  80 SE8       30.03R
FRIDAY HARBOR  CLOUDY    47  41  80 VRB7      30.04R
EASTSOUND      PTCLDY    46  41  81 S7        30.01R
PORT ANGELES   CLOUDY    46  38  73 W14G24    30.03R
NAS WHIDBEY    MOCLDY    49  40  71 E6        30.06R
BURLINGTON     CLOUDY    46  45  93 S6        30.06R
$$

WAZ020-022-039-040-504-511-512-230600-
SOUTHWEST INTERIOR

CITY           SKY/WX    TMP DP  RH WIND       PRES   REMARKS
SHELTON        MOCLDY    42  40  92 SW6       30.08R
OLYMPIA        PTCLDY    43  41  93 S8        30.11S
CHEHALIS       LGT RAIN  45  45 100 W5        30.13R
KELSO          MOCLDY    45  41  87 SE10      30.19S
VANCOUVER      CLOUDY    46  43  89 SE3       30.17R
SCAPPOOSE, OR  CLOUDY    40  38  93 CALM      30.17R
PORTLAND, OR   MOCLDY    47  44  90 SE6       30.18R
$$

WAZ021-516-517-230600-
WASHINGTON COAST

CITY           SKY/WX    TMP DP  RH WIND       PRES   REMARKS
FORKS          MOCLDY    43  43 100 CALM      30.06R FOG
HOQUIAM        CLOUDY    48  44  86 CALM      30.11R
ASTORIA, OR    PTCLDY    45  43  93 S5        30.14R
$$

WAZ019-023-024-040-518-519-230600-
CASCADE MOUNTAINS AND COLUMBIA GORGE

CITY           SKY/WX    TMP DP  RH WIND       PRES   REMARKS
STAMPEDE PASS  NOT AVBL
TROUTDALE, OR  LGT RAIN  45  42  89 N3        30.18R
THE DALLES, OR MOCLDY    46  37  71 W6        30.12R
$$

WAZ026-027-041>044-520-521-230600-
EAST SLOPES

CITY           SKY/WX    TMP DP  RH WIND       PRES   REMARKS
OMAK           FOG       21  19  92 N5        29.95R VSB 1/4
WENATCHEE      CLEAR     43  30  60 NW21      29.96R
ELLENSBURG     CLEAR     39  33  79 NW15      30.01R
YAKIMA         CLEAR     41  29  62 NW7       30.02R
$$

WAZ028-034-035-230600-
COLUMBIA BASIN

CITY           SKY/WX    TMP DP  RH WIND       PRES   REMARKS
EPHRATA        PTCLDY    43  30  60 SE9       29.94R
MOSES LAKE     PTCLDY    40  30  67 W18       29.96R
PASCO          MOCLDY    41  35  79 SW10      30.05R
HERMISTON, OR  MOCLDY    45  34  65 SW17      30.07R
$$

WAZ036>038-230600-
NORTHEAST WASHINGTON

CITY           SKY/WX    TMP DP  RH WIND       PRES   REMARKS
SPOKANE GEIGER PTCLDY    31  30  96 SW6       29.89R
SPOKANE FELTS  CLEAR     32  30  92 N3        29.92R
FAIRCHILD AFB  CLEAR     31  30  94 SW6       29.89R
COEURDALENE,ID CLOUDY    36  30  80 S6        29.88R
DEER PARK      CLEAR     29  28  96 SE3       29.89R
$$

WAZ029>033-230600-
SOUTHEAST WASHINGTON

CITY           SKY/WX    TMP DP  RH WIND       PRES   REMARKS
PULLMAN        PTCLDY    37  33  85 W18G24    29.94R
LEWISTON, ID   MOCLDY    44  32  62 SW7       29.97R
WALLA WALLA    MOCLDY    41  35  79 S13       30.05R
PENDLETON, OR  CLOUDY    43  32  65 W29G37    30.03R
$$



USA.gov is the U.S. government's official web portal to all federal, state and local government web resources and services.